Regional Weather Roundup
Issued by NWS

Home | Current Version | Previous Version | Graphics & Text | Print | Product List | Glossary On
Versions: 1 2 3 4 5 6 7 8 9 10 11 12 13 14 15 16 17 18 19 20 21 22 23 24 25 26 27 28
000
ASUS45 KBOI 291410
RWRID

IDAHO REGIONAL WEATHER ROUNDUP
NATIONAL WEATHER SERVICE BOISE ID
800 AM MDT FRI JUL 29 2016

NOTE: "FAIR" INDICATES FEW OR NO CLOUDS BELOW 12000 FEET
WITH NO SIGNIFICANT WEATHER AND/OR OBSTRUCTIONS TO VISIBILITY

IDZ012-014-291500-
SOUTHWEST IDAHO


CITY           SKY/WX    TMP DP  RH WIND       PRES   REMARKS
BOISE          SUNNY     72  41  32 SE7       29.99R HAZE
CALDWELL       SUNNY     67  56  67 CALM      29.98R
MOUNTAIN HOME  SUNNY     74  47  39 SW3       29.99R
$$

IDZ016-017-291500-
SOUTHCENTRAL IDAHO


CITY           SKY/WX    TMP DP  RH WIND       PRES   REMARKS
BURLEY         SUNNY     62  45  53 CALM      30.06R
JEROME         SUNNY     69  39  33 SE6       30.07R
TWIN FALLS     SUNNY     74  35  24 S10       30.07R
$$

IDZ019>023-291500-
SOUTHEAST IDAHO


CITY           SKY/WX    TMP DP  RH WIND       PRES   REMARKS
IDAHO FALLS    SUNNY     55  48  77 NW3       30.11R
POCATELLO      SUNNY     67  37  33 SW10      30.09S
REXBURG        SUNNY     56  46  69 NE3       30.12R
$$

IDZ006-010-011-018-031-032-291500-
CENTRAL IDAHO MOUNTAINS


CITY           SKY/WX    TMP DP  RH WIND       PRES   REMARKS
MCCALL         SUNNY     56  43  61 CALM      30.15F
HAILEY         SUNNY     61  37  41 NW12      30.17R
STANLEY          N/A     45  34  65 CALM      30.28S
SALMON         SUNNY     57  43  58 CALM      30.12R
CHALLIS        SUNNY     62  40  44 CALM      30.17R
$$

IDZ002-004-006-007-026-291500-
NORTHERN IDAHO


CITY           SKY/WX    TMP DP  RH WIND       PRES   REMARKS
LEWISTON       SUNNY     73  54  51 E5        29.96R
LOWELL           N/A     60  56  86 CALM      30.04S
COEUR D`ALENE  SUNNY     66  54  63 NE7       29.99S
MULLAN PASS    SUNNY     67  41  38 CALM      30.22S
$$




USA.gov is the U.S. government's official web portal to all federal, state and local government web resources and services.